Weather History for KJWG - April, 2013

Change the Weather History Date:

Saturday, April 6, 2013

  Actual Average Record
Temperature  
Mean Temperature 64 °F -  
Max Temperature 75 °F 70 °F - (-1)
Min Temperature 52 °F 44 °F - (-1)
Degree Days  
Heating Degree Days 2    
Growing Degree Days 14 (Base 50)    
Moisture  
Dew Point 51 °F    
Average Humidity 72    
Maximum Humidity 100    
Minimum Humidity 42    
Precipitation  
Precipitation 0.00 in - - ()
Sea Level Pressure  
Sea Level Pressure 29.83 in    
Wind  
Wind Speed 15 mph (SSW)    
Max Wind Speed 24 mph    
Max Gust Speed 33 mph    
Visibility 10 miles    
Events      
Averages and records for this station are not official NWS values.
T = Trace of Precipitation, MM = Missing Value Source: NWS Daily Summary

Daily Weather History Graph

Daily Weather History Graph

Search for Another Location

Airport or City:

Trip Planner

Search our weather history database for the weather conditions in past years. The results will help you decide how hot, cold, wet, or windy it might be!

Date:

Astronomy

Apr. 06, 2013 Rise Set
Actual Time 7:12 AM CDT 7:59 PM CDT
Civil Twilight 6:46 AM CDT 8:25 PM CDT
Nautical Twilight 6:16 AM CDT 8:56 PM CDT
Astronomical Twilight 5:44 AM CDT 9:28 PM CDT
Moon 4:50 AM CDT (4/6) 4:36 PM CDT (4/6)
Length of Visible Light 13h 39m
Length of Day
12h 47m
Waning Crescent, 15% of the Moon is Illuminated
Apr 6
Waning Crescent
Apr 10
New
Apr 18
First Quarter
Apr 25
Full
May 2
Last Quarter

Hourly Weather History & Observations

Time (CDT) Temp. Dew Point Humidity Pressure Visibility Wind Dir Wind Speed Gust Speed Precip Events Conditions
12:15 AM 55.8 °F 48.4 °F 76% 29.85 in 10.0 mi South 21.9 mph 29.9 mph N/A   Clear
12:35 AM 55.6 °F 48.2 °F 76% 29.85 in 10.0 mi South 19.6 mph 26.5 mph N/A   Clear
1:15 AM 55.6 °F 48.0 °F 76% 29.85 in 10.0 mi South 16.1 mph 24.2 mph N/A   Clear
1:35 AM 55.6 °F 48.0 °F 76% 29.84 in 10.0 mi South 16.1 mph 24.2 mph N/A   Clear
1:55 AM 56.5 °F 48.2 °F 74% 29.82 in 10.0 mi South 16.1 mph 26.5 mph N/A   Clear
2:15 AM 56.5 °F 48.2 °F 74% 29.82 in 10.0 mi South 19.6 mph 28.8 mph N/A   Clear
2:35 AM 55.6 °F 48.2 °F 76% 29.83 in 10.0 mi South 23.0 mph 28.8 mph N/A   Clear
2:55 AM 55.2 °F 48.2 °F 77% 29.82 in 10.0 mi South 23.0 mph 31.1 mph N/A   Clear
3:15 AM 54.7 °F 48.2 °F 79% 29.82 in 10.0 mi SSW 24.2 mph 31.1 mph N/A   Clear
3:35 AM 54.5 °F 48.2 °F 79% 29.81 in 10.0 mi South 19.6 mph 32.2 mph N/A   Clear
3:55 AM 54.0 °F 48.2 °F 81% 29.80 in 10.0 mi South 21.9 mph 33.4 mph N/A   Clear
4:15 AM 53.8 °F 48.0 °F 81% 29.80 in 10.0 mi South 20.7 mph 28.8 mph N/A   Clear
4:35 AM 53.6 °F 47.8 °F 81% 29.79 in 10.0 mi South 18.4 mph 27.6 mph N/A   Clear
4:55 AM 53.6 °F 47.8 °F 81% 29.79 in 10.0 mi South 20.7 mph 26.5 mph N/A   Clear
5:15 AM 53.4 °F 48.0 °F 82% 29.78 in 10.0 mi South 17.3 mph 26.5 mph N/A   Clear
5:35 AM 53.6 °F 48.2 °F 82% 29.77 in 10.0 mi South 18.4 mph 25.3 mph N/A   Clear
5:55 AM 53.6 °F 48.2 °F 82% 29.77 in 10.0 mi South 16.1 mph 21.9 mph N/A   Clear
6:15 AM 53.6 °F 48.2 °F 82% 29.76 in 10.0 mi South 17.3 mph 25.3 mph N/A   Clear
6:35 AM 53.2 °F 48.2 °F 83% 29.76 in 10.0 mi South 13.8 mph 21.9 mph N/A   Clear
6:55 AM 52.9 °F 47.8 °F 83% 29.77 in 10.0 mi South 10.4 mph 18.4 mph N/A   Clear
7:15 AM 53.1 °F 47.8 °F 82% 29.84 in 10.0 mi South 3.5 mph - N/A   Clear
7:35 AM 52.7 °F 47.7 °F 83% 29.81 in 10.0 mi SSE 12.7 mph 17.3 mph N/A   Clear
7:55 AM 52.3 °F 47.7 °F 84% 29.80 in 10.0 mi South 18.4 mph 23.0 mph N/A   Clear
8:15 AM 52.2 °F 47.7 °F 85% 29.81 in 10.0 mi South 13.8 mph - N/A   Clear
8:35 AM 52.9 °F 47.8 °F 83% 29.84 in 10.0 mi South 11.5 mph - N/A   Clear
9:15 AM 55.6 °F 49.3 °F 79% 29.85 in 10.0 mi SSW 12.7 mph 16.1 mph N/A   Clear
9:35 AM 55.9 °F 49.5 °F 79% 29.85 in 10.0 mi SSW 16.1 mph 20.7 mph N/A   Clear
9:55 AM 56.3 °F 50.0 °F 79% 29.86 in 10.0 mi SSW 16.1 mph - N/A   Clear
10:15 AM 57.9 °F 50.4 °F 76% 29.85 in 10.0 mi SSW 17.3 mph 23.0 mph N/A   Clear
10:35 AM 59.4 °F 51.1 °F 74% 29.85 in 10.0 mi SSW 17.3 mph 24.2 mph N/A   Clear
10:55 AM 61.3 °F 52.0 °F 71% 29.85 in 10.0 mi SW 21.9 mph 25.3 mph N/A   Clear
11:15 AM 63.0 °F 51.8 °F 67% 29.84 in 10.0 mi SW 20.7 mph - N/A   Clear
11:35 AM 64.0 °F 52.9 °F 67% 29.85 in 10.0 mi WSW 16.1 mph 24.2 mph N/A   Clear
11:55 AM 64.4 °F 52.7 °F 66% 29.85 in 10.0 mi SW 15.0 mph - N/A   Clear
12:15 PM 65.5 °F 53.1 °F 64% 29.86 in 10.0 mi SSW 11.5 mph 17.3 mph N/A   Clear
12:35 PM 66.4 °F 53.2 °F 63% 29.86 in 10.0 mi WSW 9.2 mph - N/A   Clear
12:55 PM 67.5 °F 53.1 °F 60% 29.86 in 10.0 mi West 8.1 mph - N/A   Clear
1:15 PM 68.9 °F 53.1 °F 57% 29.86 in 10.0 mi West 10.4 mph - N/A   Clear
1:35 PM 69.3 °F 52.3 °F 55% 29.85 in 10.0 mi West 4.6 mph - N/A   Clear
1:55 PM 69.8 °F 52.0 °F 53% 29.86 in 10.0 mi West 4.6 mph - N/A   Clear
2:15 PM 70.5 °F 52.2 °F 52% 29.85 in 10.0 mi WNW 8.1 mph - N/A   Clear
2:35 PM 71.4 °F 51.8 °F 50% 29.84 in 10.0 mi West 3.5 mph - N/A   Clear
3:15 PM 72.7 °F 52.5 °F 49% 29.84 in 10.0 mi SW 6.9 mph - N/A   Clear
3:35 PM 72.9 °F 51.1 °F 46% 29.83 in 10.0 mi Calm Calm - N/A   Clear
4:15 PM 74.1 °F 51.8 °F 46% 29.82 in 10.0 mi WNW 5.8 mph - N/A   Clear
4:35 PM 75.2 °F 50.7 °F 42% 29.82 in 10.0 mi Calm Calm - N/A   Clear
5:15 PM 72.0 °F 55.2 °F 55% 29.82 in 10.0 mi SSE 8.1 mph - N/A   Clear
5:35 PM 72.0 °F 55.0 °F 55% 29.81 in 10.0 mi SSE 6.9 mph - N/A   Clear
5:55 PM 72.0 °F 54.1 °F 53% 29.81 in 10.0 mi South 5.8 mph - N/A   Clear
6:15 PM 71.8 °F 54.9 °F 55% 29.82 in 10.0 mi SSE 5.8 mph - N/A   Clear
6:35 PM 72.7 °F 53.8 °F 51% 29.82 in 10.0 mi SSE 5.8 mph - N/A   Clear
6:55 PM 70.9 °F 55.6 °F 58% 29.83 in 10.0 mi South 8.1 mph - N/A   Clear
7:15 PM 69.4 °F 56.1 °F 62% 29.83 in 10.0 mi South 9.2 mph - N/A   Clear
7:35 PM 68.5 °F 55.9 °F 64% 29.83 in 10.0 mi South 5.8 mph - N/A   Clear
7:55 PM 67.3 °F 56.3 °F 68% 29.84 in 10.0 mi South 5.8 mph - N/A   Clear
8:15 PM 65.3 °F 56.3 °F 73% 29.84 in 10.0 mi SSW 4.6 mph - N/A   Clear
8:35 PM 64.6 °F 55.8 °F 73% 29.84 in 10.0 mi South 4.6 mph - N/A   Clear
8:55 PM 63.5 °F 55.4 °F 75% 29.85 in 10.0 mi SSW 4.6 mph - N/A   Clear
9:15 PM 61.2 °F 55.4 °F 81% 29.86 in 10.0 mi Calm Calm - N/A   Clear
9:35 PM 61.0 °F 54.9 °F 80% 29.87 in 10.0 mi Calm Calm - N/A   Clear
9:55 PM 60.1 °F 54.5 °F 82% 29.87 in 10.0 mi Calm Calm - N/A   Clear
10:15 PM 59.4 °F 54.3 °F 83% 29.88 in 10.0 mi Calm Calm - N/A   Clear
10:35 PM 56.5 °F 53.1 °F 88% 29.88 in 10.0 mi East 3.5 mph - N/A   Clear
10:55 PM 54.3 °F 53.1 °F 95% 29.89 in 10.0 mi Calm Calm - N/A   Clear
11:15 PM 53.6 °F 53.6 °F 100% 29.89 in 10.0 mi Calm Calm - N/A   Clear
11:35 PM 52.7 °F 52.7 °F 100% 29.89 in 10.0 mi Calm Calm - N/A   Clear